Sadsburyville, PA

1:39 PM EDT on September 29, 2016 (GMT -0400)
Chester County Carlson

Weather History for KMQS - April, 2014

Change the Weather History Date:

Wednesday, April 9, 2014

  Actual Average (KLNS) Record (KLNS)
Temperature  
Mean Temperature 52 °F -  
Max Temperature 62 °F 60 °F 86 °F (1991)
Min Temperature 42 °F 38 °F 25 °F (1985)
Degree Days  
Heating Degree Days 13    
Growing Degree Days 2 (Base 50)    
Moisture  
Dew Point 30 °F    
Average Humidity 47    
Maximum Humidity 76    
Minimum Humidity 22    
Precipitation  
Precipitation 0.00 in - - ()
Sea Level Pressure  
Sea Level Pressure 29.81 in    
Wind  
Wind Speed 7 mph (NW)    
Max Wind Speed 22 mph    
Max Gust Speed 26 mph    
Visibility 10 miles    
Events      
Averages and records for this station are not official NWS values.
T = Trace of Precipitation, MM = Missing Value Source: NWS Daily Summary

Daily Weather History Graph

Daily Weather History Graph

Search for Another Location

Airport or City:

Trip Planner

Search our weather history database for the weather conditions in past years. The results will help you decide how hot, cold, wet, or windy it might be!

Date:

Astronomy

Apr. 09, 2014 Rise Set
Actual Time 6:34 AM EDT 7:35 PM EDT
Civil Twilight 6:07 AM EDT 8:03 PM EDT
Nautical Twilight 5:34 AM EDT 8:36 PM EDT
Astronomical Twilight 5:00 AM EDT 9:10 PM EDT
Moon 2:22 PM EDT (4/9) 3:22 AM EDT (4/9)
Length of Visible Light 13h 56m
Length of Day
13h 00m
Waxing Gibbous, 71% of the Moon is Illuminated
Apr 9
Waxing Gibbous
Apr 15
Full
Apr 22
Last Quarter
Apr 29
New
May 6
First Quarter

Hourly Weather History & Observations

Time (EDT) Temp. Windchill Dew Point Humidity Pressure Visibility Wind Dir Wind Speed Gust Speed Precip Events Conditions
12:15 AM 44.6 °F - 35.6 °F 71% 29.69 in 10.0 mi Calm Calm - N/A   Clear
12:35 AM 44.6 °F - 35.6 °F 71% 29.69 in 10.0 mi Calm Calm - N/A   Clear
12:55 AM 46.4 °F - 35.6 °F 66% 29.70 in 10.0 mi Calm Calm - N/A   Clear
1:15 AM 42.8 °F 41.1 °F 35.6 °F 76% 29.69 in 10.0 mi North 3.5 mph - N/A   Clear
1:35 AM 44.6 °F 43.1 °F 35.6 °F 71% 29.69 in 10.0 mi NNW 3.5 mph - N/A   Clear
1:55 AM 42.8 °F 39.3 °F 35.6 °F 76% 29.69 in 10.0 mi NW 5.8 mph - N/A   Clear
2:15 AM 42.8 °F 38.6 °F 35.6 °F 76% 29.69 in 10.0 mi NW 6.9 mph - N/A   Clear
2:35 AM 42.8 °F 38.6 °F 35.6 °F 76% 29.68 in 10.0 mi NW 6.9 mph - N/A   Clear
2:55 AM 44.6 °F 40.2 °F 35.6 °F 71% 29.68 in 10.0 mi NW 8.1 mph - N/A   Clear
3:15 AM 42.8 °F 39.3 °F 35.6 °F 76% 29.68 in 10.0 mi NW 5.8 mph - N/A   Clear
3:35 AM 42.8 °F 39.3 °F 35.6 °F 76% 29.68 in 10.0 mi NW 5.8 mph - N/A   Clear
3:55 AM 44.6 °F 39.7 °F 35.6 °F 71% 29.67 in 10.0 mi NW 9.2 mph - N/A   Clear
4:15 AM 44.6 °F 40.2 °F 35.6 °F 71% 29.68 in 10.0 mi NW 8.1 mph - N/A   Clear
4:35 AM 44.6 °F 40.7 °F 35.6 °F 71% 29.68 in 10.0 mi NW 6.9 mph - N/A   Clear
4:55 AM 42.8 °F 38.6 °F 33.8 °F 70% 29.68 in 10.0 mi NW 6.9 mph - N/A   Clear
5:15 AM 44.6 °F 40.2 °F 33.8 °F 66% 29.69 in 10.0 mi NW 8.1 mph - N/A   Clear
5:35 AM 42.8 °F 38.6 °F 33.8 °F 70% 29.70 in 10.0 mi NW 6.9 mph - N/A   Clear
5:55 AM 44.6 °F 40.2 °F 33.8 °F 66% 29.71 in 10.0 mi NNW 8.1 mph - N/A   Clear
6:15 AM 42.8 °F 38.0 °F 33.8 °F 70% 29.72 in 10.0 mi NNW 8.1 mph - N/A   Clear
6:35 AM 42.8 °F 38.6 °F 33.8 °F 70% 29.73 in 10.0 mi NNW 6.9 mph - N/A   Clear
6:55 AM 42.8 °F 38.6 °F 33.8 °F 70% 29.74 in 10.0 mi NW 6.9 mph - N/A   Clear
7:15 AM 42.8 °F 38.6 °F 33.8 °F 70% 29.75 in 10.0 mi NW 6.9 mph - N/A   Clear
7:35 AM 44.6 °F 39.7 °F 33.8 °F 66% 29.77 in 10.0 mi NNW 9.2 mph - N/A   Clear
8:15 AM 46.4 °F 42.4 °F 35.6 °F 66% 29.78 in 10.0 mi NNW 8.1 mph - N/A   Clear
8:35 AM 46.4 °F 41.9 °F 33.8 °F 62% 29.79 in 10.0 mi NW 9.2 mph - N/A   Clear
8:55 AM 48.2 °F - 33.8 °F 58% 29.79 in 10.0 mi NNW 10.4 mph - N/A   Clear
9:15 AM 50.0 °F - 33.8 °F 54% 29.80 in 10.0 mi NW 10.4 mph - N/A   Clear
9:35 AM 51.8 °F - 33.8 °F 50% 29.80 in 10.0 mi NNW 9.2 mph - N/A   Clear
9:55 AM 51.8 °F - 33.8 °F 50% 29.81 in 10.0 mi NW 10.4 mph - N/A   Clear
10:15 AM 53.6 °F - 33.8 °F 47% 29.81 in 10.0 mi NW 9.2 mph - N/A   Clear
10:35 AM 53.6 °F - 32.0 °F 44% 29.81 in 10.0 mi NNW 8.1 mph - N/A   Clear
10:55 AM 55.4 °F - 32.0 °F 41% 29.82 in 10.0 mi NNW 6.9 mph - N/A   Clear
11:15 AM 55.4 °F - 32.0 °F 41% 29.82 in 10.0 mi NNW 13.8 mph - N/A   Clear
11:35 AM 57.2 °F - 32.0 °F 38% 29.81 in 10.0 mi NNW 13.8 mph 17.3 mph N/A   Clear
11:55 AM 57.2 °F - 33.8 °F 41% 29.81 in 10.0 mi WNW 19.6 mph 24.2 mph N/A   Partly Cloudy
12:15 PM 57.2 °F - 32.0 °F 38% 29.81 in 10.0 mi NW 18.4 mph 24.2 mph N/A   Clear
12:35 PM 57.2 °F - 32.0 °F 38% 29.81 in 10.0 mi NW 18.4 mph 21.9 mph N/A   Partly Cloudy
12:55 PM 55.4 °F - 30.2 °F 38% 29.81 in 10.0 mi NNW 11.5 mph 19.6 mph N/A   Scattered Clouds
1:15 PM 60.8 °F - 28.4 °F 29% 29.81 in 10.0 mi NNW 13.8 mph 26.5 mph N/A   Scattered Clouds
1:35 PM 60.8 °F - 28.4 °F 29% 29.81 in 10.0 mi NW 18.4 mph 24.2 mph N/A   Partly Cloudy
1:55 PM 60.8 °F - 26.6 °F 27% 29.81 in 10.0 mi NW 21.9 mph 26.5 mph N/A   Partly Cloudy
2:15 PM 60.8 °F - 26.6 °F 27% 29.81 in 10.0 mi NW 16.1 mph 25.3 mph N/A   Clear
2:35 PM 60.8 °F - 26.6 °F 27% 29.81 in 10.0 mi North 15.0 mph 25.3 mph N/A   Clear
2:55 PM 57.2 °F - 26.6 °F 31% 29.81 in 10.0 mi NW 19.6 mph 23.0 mph N/A   Partly Cloudy
3:15 PM 60.8 °F - 26.6 °F 27% 29.81 in 10.0 mi NW 15.0 mph - N/A   Scattered Clouds
3:35 PM 59.0 °F - 26.6 °F 29% 29.81 in 10.0 mi NW 15.0 mph 21.9 mph N/A   Scattered Clouds
3:55 PM 62.6 °F - 26.6 °F 26% 29.80 in 10.0 mi NW 13.8 mph 24.2 mph N/A   Partly Cloudy
4:15 PM 60.8 °F - 24.8 °F 25% 29.80 in 10.0 mi NNW 15.0 mph 20.7 mph N/A   Mostly Cloudy
4:35 PM 59.0 °F - 24.8 °F 27% 29.81 in 10.0 mi NW 16.1 mph 23.0 mph N/A   Scattered Clouds
4:55 PM 62.6 °F - 26.6 °F 26% 29.81 in 10.0 mi NNW 11.5 mph - N/A   Scattered Clouds
5:15 PM 62.6 °F - 23.0 °F 22% 29.81 in 10.0 mi West 15.0 mph - N/A   Scattered Clouds
5:35 PM 62.6 °F - 24.8 °F 24% 29.82 in 10.0 mi NW 16.1 mph 19.6 mph N/A   Scattered Clouds
5:55 PM 60.8 °F - 23.0 °F 23% 29.83 in 10.0 mi NW 12.7 mph 20.7 mph N/A   Partly Cloudy
6:15 PM 60.8 °F - 24.8 °F 25% 29.83 in 10.0 mi NW 12.7 mph 18.4 mph N/A   Clear
6:35 PM 59.0 °F - 23.0 °F 25% 29.84 in 10.0 mi NW 9.2 mph - N/A   Partly Cloudy
6:55 PM 59.0 °F - 23.0 °F 25% 29.85 in 10.0 mi NW 12.7 mph 16.1 mph N/A   Partly Cloudy
7:15 PM 57.2 °F - 23.0 °F 27% 29.86 in 10.0 mi NW 8.1 mph - N/A   Partly Cloudy
7:35 PM 55.4 °F - 23.0 °F 29% 29.87 in 10.0 mi NW 9.2 mph - N/A   Clear
7:55 PM 51.8 °F - 24.8 °F 35% 29.89 in 10.0 mi NW 6.9 mph - N/A   Clear
8:15 PM 51.8 °F - 26.6 °F 38% 29.90 in 10.0 mi WNW 8.1 mph - N/A   Clear
8:35 PM 50.0 °F - 26.6 °F 40% 29.92 in 10.0 mi NW 8.1 mph - N/A   Clear
8:55 PM 50.0 °F - 24.8 °F 37% 29.94 in 10.0 mi NW 5.8 mph - N/A   Clear
9:15 PM 50.0 °F - 24.8 °F 37% 29.96 in 10.0 mi NW 3.5 mph - N/A   Clear
9:35 PM 51.8 °F - 23.0 °F 33% 29.97 in 10.0 mi NNW 3.5 mph - N/A   Clear
9:55 PM 50.0 °F - 23.0 °F 35% 29.99 in 10.0 mi NNW 4.6 mph - N/A   Clear
10:15 PM 51.8 °F - 23.0 °F 33% 30.00 in 10.0 mi North 3.5 mph - N/A   Clear
10:35 PM 51.8 °F - 24.8 °F 35% 30.01 in 10.0 mi North 3.5 mph - N/A   Clear
10:55 PM 50.0 °F - 24.8 °F 37% 30.02 in 10.0 mi Calm Calm - N/A   Clear
11:15 PM 48.2 °F - 24.8 °F 40% 30.03 in 10.0 mi Calm Calm - N/A   Clear
11:35 PM 48.2 °F - 24.8 °F 40% 30.04 in 10.0 mi East 5.8 mph - N/A   Clear
11:55 PM 48.2 °F - 26.6 °F 43% 30.05 in 10.0 mi Calm Calm - N/A   Clear